Flag for Canada Weather past 2 weeks in Whistler, British Columbia, Canada

Now
68 °F

Mild.


Feels Like: 68 °F
Forecast: 51 / 76 °F
Wind: 7 mph from South

Location: Squamish Airport

Current Time: May 26, 2015 at 7:38:20 PM

Latest Report: May 26, 2015 at 7:00 PM


Visibility: N/A

Pressure: 29.94 "Hg

Humidity: 60%

Dew point: 53 °F

Location of WhistlerLocation

Historic Weather in Whistler — Graph

°F

Whistler temperature yesterday

Maximum temperature yesterday: 62 °F (at 2:00 PM)
Minimum temperature yesterday: 55 °F (at 7:00 AM)
Average temperature yesterday: 58 °F

Past Weeks' High & Low Weather Summary

 TemperatureHumidityPressure
High80 °F (May 21, 4:00 PM)97% (May 13, 1:00 AM)30.15 "Hg (May 13, 1:00 AM)
Low49 °F (May 20, 6:00 AM)35% (May 18, 6:00 PM)29.71 "Hg (May 12, 1:00 PM)
Average61 °F76%29.94 "Hg
* Reported May 11 6:00 PM — May 26 6:00 PM, Whistler, Weather by CustomWeather, © 2015

Note: Actual official high and low records may vary slightly from our data, if they occured in-between our weather recording intervals... More about our weather records

Advertising

Whistler weather history for previous 24 hours

 ConditionsComfort  
Time TempWeatherWind HumidityBarometerVisibility
6:00 PM
Tue, May 26
70 °FMild.7 mph60%29.94 "HgN/A
5:00 PM70 °FMild.7 mph57%29.95 "HgN/A
4:00 PM69 °FMild.10 mph58%29.96 "HgN/A
3:00 PM70 °FMild.8 mph60%29.97 "HgN/A
2:00 PM68 °FMild.12 mph58%29.99 "HgN/A
1:00 PM68 °FMild.9 mph59%30.00 "HgN/A
12:00 PM66 °FMild.8 mph66%30.02 "HgN/A
11:00 AM63 °FMild.6 mph75%30.03 "HgN/A
10:00 AM61 °FCool.3 mph81%30.03 "HgN/A
9:00 AM59 °FCool.1 mph86%30.03 "HgN/A
8:00 AM58 °FCool.No wind83%30.03 "HgN/A
7:00 AM57 °FCool.1 mph94%30.02 "HgN/A
6:00 AM56 °FCool.1 mph95%30.02 "HgN/A
5:00 AM57 °FCool.No wind94%30.01 "HgN/A
4:00 AM57 °FCool.1 mph94%30.01 "HgN/A
3:00 AM57 °FCool.No wind94%30.01 "HgN/A
2:00 AM57 °FCool.No wind94%30.01 "HgN/A
1:00 AM57 °FCool.No wind93%30.00 "HgN/A
12:00 AM57 °FCool.No wind94%30.00 "HgN/A
11:00 PM
Mon, May 25
57 °FCool.1 mph92%29.99 "HgN/A
10:00 PM58 °FCool.No wind89%29.99 "HgN/A
9:00 PM58 °FCool.No wind87%29.98 "HgN/A
8:00 PM59 °FCool.2 mph80%29.97 "HgN/A
7:00 PM60 °FCool.5 mph78%29.96 "HgN/A
Weather by CustomWeather, © 2015

See weather overviewHow to use our weather pages